Burbank, CA

6:01 PM PDT on July 20, 2017 (GMT -0700)
Burbank-Glendale-Pasadena

Weather History for KBUR - September, 2011

Change the Weather History Date:

Sunday, September 11, 2011

  Actual Average Record
Temperature  
Mean Temperature 71 °F 74 °F  
Max Temperature 79 °F 87 °F 109 °F (1983)
Min Temperature 62 °F 61 °F 47 °F (1978)
Degree Days  
Heating Degree Days 0 0  
Month to date heating degree days 0 0  
Since 1 July heating degree days 0 0  
Cooling Degree Days 6 9  
Month to date cooling degree days 128 107  
Year to date cooling degree days 1005 989  
Growing Degree Days 20 (Base 50)    
Moisture  
Dew Point 54 °F    
Average Humidity 60    
Maximum Humidity 78    
Minimum Humidity 42    
Precipitation  
Precipitation 0.00 in 0.01 in 0.66 in (1976)
Month to date precipitation T 0.03  
Year to date precipitation 9.15 12.67  
Since 1 July precipitation T  
Sea Level Pressure  
Sea Level Pressure 29.94 in    
Wind  
Wind Speed 5 mph (SSE)    
Max Wind Speed 12 mph    
Max Gust Speed -    
Visibility 10 miles    
Events      
T = Trace of Precipitation, MM = Missing Value Source: NWS Daily Summary

Daily Weather History Graph

Daily Weather History Graph

Search for Another Location

Airport or City:

Trip Planner

Search our weather history database for the weather conditions in past years. The results will help you decide how hot, cold, wet, or windy it might be!

Date:

Astronomy

Sep. 11, 2011 Rise Set
Actual Time 6:33 AM PDT 7:05 PM PDT
Civil Twilight 6:08 AM PDT 7:31 PM PDT
Nautical Twilight 5:38 AM PDT 8:00 PM PDT
Astronomical Twilight 5:08 AM PDT 8:30 PM PDT
Moon 6:32 PM PDT (9/11) 5:56 AM PDT (9/11)
Length of Visible Light 13h 22m
Length of Day
12h 32m
Full, 100% of the Moon is Illuminated
Sep 11
Full
Sep 12
Full
Sep 20
Last Quarter
Sep 27
New
Oct 3
First Quarter

Hourly Weather History & Observations

Time (PDT) Temp. Dew Point Humidity Pressure Visibility Wind Dir Wind Speed Gust Speed Precip Events Conditions
12:53 AM 64.0 °F 55.0 °F 73% 29.90 in 10.0 mi South 5.8 mph - N/A   Overcast
1:53 AM 63.0 °F 55.0 °F 75% 29.89 in 10.0 mi South 4.6 mph - N/A   Overcast
2:53 AM 63.0 °F 55.0 °F 75% 29.90 in 10.0 mi South 6.9 mph - N/A   Overcast
3:53 AM 63.0 °F 55.0 °F 75% 29.91 in 10.0 mi South 6.9 mph - N/A   Overcast
4:53 AM 63.0 °F 55.0 °F 75% 29.91 in 10.0 mi South 4.6 mph - N/A   Overcast
5:53 AM 62.1 °F 55.0 °F 78% 29.93 in 10.0 mi Calm Calm - N/A   Overcast
6:53 AM 63.0 °F 55.0 °F 75% 29.94 in 10.0 mi Calm Calm - N/A   Overcast
7:53 AM 63.0 °F 55.0 °F 75% 29.96 in 8.0 mi South 3.5 mph - N/A   Overcast
8:53 AM 63.0 °F 55.0 °F 75% 29.97 in 10.0 mi Calm Calm - N/A   Overcast
9:53 AM 64.0 °F 55.0 °F 73% 29.99 in 10.0 mi SSE 6.9 mph - N/A   Overcast
10:53 AM 66.9 °F 55.0 °F 66% 29.99 in 10.0 mi Calm Calm - N/A   Scattered Clouds
11:53 AM 70.0 °F 54.0 °F 57% 29.97 in 10.0 mi Variable 4.6 mph - N/A   Clear
12:53 PM 75.0 °F 53.1 °F 46% 29.95 in 10.0 mi Variable 4.6 mph - N/A   Clear
1:53 PM 75.9 °F 51.1 °F 42% 29.94 in 10.0 mi South 6.9 mph - N/A   Clear
2:53 PM 78.1 °F 53.1 °F 42% 29.91 in 10.0 mi South 8.1 mph - N/A   Clear
3:53 PM 77.0 °F 53.1 °F 43% 29.90 in 10.0 mi South 6.9 mph - N/A   Clear
4:53 PM 78.1 °F 53.1 °F 42% 29.89 in 10.0 mi South 8.1 mph - N/A   Clear
5:53 PM 75.9 °F 53.1 °F 45% 29.89 in 10.0 mi South 6.9 mph - N/A   Clear
6:53 PM 73.0 °F 54.0 °F 51% 29.91 in 10.0 mi South 8.1 mph - N/A   Clear
7:53 PM 68.0 °F 53.1 °F 59% 29.92 in 10.0 mi South 5.8 mph - N/A   Clear
8:53 PM 68.0 °F 54.0 °F 61% 29.95 in 10.0 mi ESE 5.8 mph - N/A   Clear
9:53 PM 66.0 °F 53.1 °F 63% 29.97 in 10.0 mi ESE 8.1 mph - N/A   Clear
10:53 PM 64.9 °F 53.1 °F 65% 29.98 in 10.0 mi ENE 4.6 mph - N/A   Clear
11:53 PM 64.0 °F 54.0 °F 70% 29.99 in 10.0 mi East 4.6 mph - N/A   Clear